| time (UTC) | temp F | wind direction | speed knots | gust knots | rain 1hr in | rain 24hr in | rain mn in | humidity % | barometer mb |
| 20260504081529 | 46 | 350 | 9.6 | 20.9 | 0.00 | 0.00 | 0.00 | 63 | 1015.7 |
| 20260504044531 | 54 | 53 | 18.2 | 30.4 | 0.00 | 0.00 | 0.00 | 43 | 1011.2 |
| 20260504043031 | 57 | 32 | 16.5 | 27.8 | 0.00 | 0.00 | 0.00 | 42 | 1010.9 |
| 20260504041529 | 59 | 12 | 17.4 | 22.6 | 0.00 | 0.00 | 0.00 | 40 | 1010.3 |
| 20260504040032 | 59 | 5 | 11.3 | 20.0 | 0.00 | 0.00 | 0.00 | 39 | 1010.1 |
| 20260504034540 | 59 | 22 | 9.6 | 18.2 | 0.00 | 0.00 | 0.00 | 38 | 1009.8 |
| 20260504033031 | 59 | 11 | 13.9 | 17.4 | 0.00 | 0.00 | 0.00 | 39 | 1009.5 |
| 20260504031528 | 59 | 35 | 12.2 | 22.6 | 0.00 | 0.00 | 0.00 | 39 | 1009.2 |
| 20260504030038 | 60 | 45 | 17.4 | 21.7 | 0.00 | 0.00 | 0.00 | 40 | 1008.8 |
| 20260504024528 | 60 | 39 | 14.8 | 20.0 | 0.00 | 0.00 | 0.00 | 40 | 1008.6 |
| 20260504023031 | 62 | 44 | 13.0 | 16.5 | 0.00 | 0.00 | 0.00 | 37 | 1008.6 |
| 20260504021528 | 64 | 25 | 7.0 | 12.2 | 0.00 | 0.00 | 0.00 | 31 | 1008.7 |
| 20260504020030 | 66 | 355 | 8.7 | 11.3 | 0.00 | 0.00 | 0.00 | 26 | 1008.6 |
| 20260504014528 | 68 | 360 | 11.3 | 15.6 | 0.00 | 0.00 | 0.00 | 25 | 1008.8 |
| 20260504013028 | 68 | 360 | 11.3 | 18.2 | 0.00 | 0.00 | 0.00 | 24 | 1008.9 |
| 20260504011530 | 70 | 322 | 11.3 | 16.5 | 0.00 | 0.00 | 0.00 | 24 | 1008.9 |
| 20260504010028 | 70 | 318 | 11.3 | 17.4 | 0.00 | 0.00 | 0.00 | 23 | 1008.9 |
| 20260504004531 | 71 | 334 | 10.4 | 20.9 | 0.00 | 0.00 | 0.00 | 23 | 1009.2 |
| 20260504003029 | 71 | 350 | 14.8 | 20.9 | 0.00 | 0.00 | 0.00 | 24 | 1009.3 |
| 20260504001529 | 71 | 360 | 13.9 | 20.9 | 0.00 | 0.00 | 0.00 | 24 | 1009.3 |
| 20260504000029 | 71 | 327 | 17.4 | 21.7 | 0.00 | 0.00 | 0.00 | 23 | 1009.5 |
| 20260503234533 | 71 | 304 | 14.8 | 26.1 | 0.00 | 0.00 | 0.00 | 24 | 1009.5 |
| 20260503233027 | 71 | 289 | 12.2 | 17.4 | 0.00 | 0.00 | 0.00 | 23 | 1009.5 |
| 20260503231543 | 71 | 319 | 13.0 | 20.0 | 0.00 | 0.00 | 0.00 | 23 | 1009.5 |
| 20260503230031 | 71 | 294 | 11.3 | 19.1 | 0.00 | 0.00 | 0.00 | 23 | 1009.6 |
| 20260503224529 | 71 | 306 | 15.6 | 26.1 | 0.00 | 0.00 | 0.00 | 23 | 1009.7 |
| 20260503223030 | 72 | 298 | 13.0 | 20.9 | 0.00 | 0.00 | 0.00 | 23 | 1009.9 |
| 20260503221529 | 71 | 323 | 8.7 | 20.0 | 0.00 | 0.00 | 0.00 | 23 | 1010.0 |
| 20260503220037 | 69 | 321 | 11.3 | 23.5 | 0.00 | 0.00 | 0.00 | 24 | 1010.2 |
| 20260503214528 | 70 | 216 | 12.2 | 16.5 | 0.00 | 0.00 | 0.00 | 24 | 1010.4 |
| 20260503213048 | 71 | 288 | 13.0 | 21.7 | 0.00 | 0.00 | 0.00 | 24 | 1010.6 |
| 20260503211532 | 71 | 288 | 13.0 | 21.7 | 0.00 | 0.00 | 0.00 | 24 | 1010.8 |
| 20260503210029 | 69 | 323 | 11.3 | 20.0 | 0.00 | 0.00 | 0.00 | 25 | 1011.0 |
| 20260503204541 | 70 | 256 | 11.3 | 24.3 | 0.00 | 0.00 | 0.00 | 25 | 1011.2 |
| 20260503203033 | 70 | 254 | 9.6 | 17.4 | 0.00 | 0.00 | 0.00 | 25 | 1011.2 |
| 20260503201528 | 68 | 331 | 13.0 | 20.0 | 0.00 | 0.00 | 0.00 | 27 | 1011.3 |
| 20260503200029 | 69 | 247 | 11.3 | 21.7 | 0.00 | 0.00 | 0.00 | 26 | 1011.6 |
| 20260503194529 | 69 | 270 | 10.4 | 17.4 | 0.00 | 0.00 | 0.00 | 26 | 1011.8 |
| 20260503193030 | 68 | 279 | 7.8 | 22.6 | 0.00 | 0.00 | 0.00 | 27 | 1012.0 |
| 20260503191528 | 67 | 283 | 9.6 | 20.9 | 0.00 | 0.00 | 0.00 | 28 | 1012.2 |
| 20260503190030 | 67 | 308 | 7.8 | 18.2 | 0.00 | 0.00 | 0.00 | 27 | 1012.5 |
| 20260503184529 | 66 | 327 | 13.0 | 20.9 | 0.00 | 0.00 | 0.00 | 27 | 1012.5 |
| 20260503183040 | 67 | 244 | 10.4 | 19.1 | 0.00 | 0.00 | 0.00 | 25 | 1012.6 |
| 20260503181530 | 67 | 289 | 10.4 | 19.1 | 0.00 | 0.00 | 0.00 | 27 | 1012.8 |
| 20260503180032 | 66 | 294 | 9.6 | 16.5 | 0.00 | 0.00 | 0.00 | 27 | 1013.1 |
| 20260503174538 | 65 | 315 | 12.2 | 20.0 | 0.00 | 0.00 | 0.00 | 28 | 1013.1 |
| 20260503173031 | 65 | 350 | 12.2 | 19.1 | 0.00 | 0.00 | 0.00 | 29 | 1013.5 |
| 20260503171533 | 65 | 343 | 11.3 | 20.0 | 0.00 | 0.00 | 0.00 | 30 | 1013.5 |